{"data":{"norad_id":48354,"intl_designator":"2021-038B","name":"STARLINK-2674","alt_names":[],"object_type":"PAYLOAD","status":"ACTIVE","operator":null,"country":"US","launch_date":"2021-05-04","launch_site_code":"AFETR","launch_vehicle":null,"mission":null,"orbit_class":"UNKNOWN","rcs_meters":null,"size_class":null,"mass_kg":null,"dimensions":null,"purposes":["comms"],"wikipedia_slug":null,"has_3d_model":false,"image_url":null,"decayed_at":null,"tle_current":{"epoch":"2026-09-19T22:25:17.713056Z","epoch_age_seconds":82646,"freshness":"FRESH","line1":"1 48354U 21038B   26262.93423279 -.00000762  00000+0 -12797-4 0  9991","line2":"2 48354  53.1598 174.2377 0001176  95.6020 264.5115 15.31706788296844","mean_motion":15.31706788,"eccentricity":0.0001176,"inclination_deg":53.1598,"raan_deg":174.2377,"arg_perigee_deg":95.602,"mean_anomaly_deg":264.5115,"bstar":-1.2797e-5,"rev_number":29684,"period_min":94.012771326832,"perigee_km":469.91433507054,"apogee_km":471.52518618064,"semimajor_km":6848.8567606256,"source":"CELESTRAK","updated_at":"2026-09-20T09:00:38.938777Z"}}}